EW7112 Weather Reports


time (UTC)temp
C
wind
direction
speed
KPH
gust
KPH
rain 1hr
cm
rain 24hr
cm
rain mn
cm
humidity
%
barometer
mb
20260901140030 29 156 0.0 8.0 0.00 0.00 0.00 65 995.0
20260901134528 28 84 1.6 8.0 0.00 0.00 0.00 67 995.0
20260901133025 28 98 1.6 4.8 0.00 0.00 0.00 69 994.9
20260901131526 27 122 0.0 3.2 0.00 0.00 0.00 71 994.8
20260901130025 27 226 0.0 1.6 0.00 0.00 0.00 71 994.6
20260901124519 27 226 0.0 0.0 0.00 0.00 0.00 71 994.3
20260901123014 27 226 0.0 0.0 0.00 0.00 0.00 70 994.1
20260901121512 27 226 0.0 0.0 0.00 0.00 0.00 68 994.0
20260901120009 27 94 0.0 4.8 0.00 0.00 0.00 68 994.0
20260901114510 27 197 0.0 3.2 0.00 0.00 0.00 68 993.9
20260901113008 27 197 0.0 3.2 0.00 0.00 0.00 67 993.8
20260901111505 28 197 0.0 1.6 0.00 0.00 0.00 67 993.5
20260901110004 28 197 0.0 1.6 0.00 0.00 0.00 66 993.5
20260901104506 28 197 0.0 1.6 0.00 0.00 0.00 66 993.4
20260901103002 28 197 0.0 0.0 0.00 0.00 0.00 66 993.4
20260901101604 28 197 0.0 3.2 0.00 0.00 0.00 65 993.4
20260901100104 28 245 0.0 1.6 0.00 0.00 0.00 64 993.5
20260901094557 28 218 0.0 6.4 0.00 0.00 0.00 63 993.4
20260901093101 29 213 1.6 6.4 0.00 0.00 0.00 63 993.5
20260901091555 29 214 0.0 4.8 0.00 0.00 0.00 61 993.6
20260901090054 29 215 0.0 4.8 0.00 0.00 0.00 60 993.6
20260901084554 29 174 1.6 8.0 0.00 0.00 0.00 58 993.5
20260901083051 29 86 3.2 8.0 0.00 0.00 0.00 57 993.4
20260901081552 29 146 0.0 8.0 0.00 0.00 0.00 57 993.4
20260901080049 29 92 0.0 3.2 0.00 0.00 0.00 56 993.3
20260901074548 29 101 0.0 3.2 0.00 0.00 0.00 56 993.3
20260901073054 29 101 0.0 4.8 0.00 0.00 0.00 55 993.3
20260901071545 29 94 0.0 6.4 0.00 0.00 0.00 55 993.2
20260901070053 29 148 1.6 6.4 0.00 0.00 0.00 55 993.1
20260901064543 28 133 1.6 4.8 0.00 0.00 0.00 55 993.0
20260901063042 28 104 0.0 3.2 0.00 0.00 0.00 55 993.0
20260901061541 28 104 0.0 0.0 0.00 0.00 0.00 56 992.9
20260901060037 28 104 0.0 0.0 0.00 0.00 0.00 55 992.7
20260901054536 28 104 0.0 1.6 0.00 0.00 0.00 54 992.6
20260901053036 29 104 0.0 1.6 0.00 0.00 0.00 54 992.4
20260901051531 29 104 0.0 0.0 0.00 0.00 0.00 53 992.2
20260901050028 30 104 0.0 0.0 0.00 0.00 0.00 52 992.0
20260901044541 30 104 0.0 0.0 0.00 0.00 0.00 51 991.9
20260901043028 30 104 0.0 0.0 0.00 0.00 0.00 50 991.9
20260901041531 31 104 0.0 0.0 0.00 0.00 0.00 48 992.0
20260901040032 31 104 0.0 0.0 0.00 0.00 0.00 47 992.1
20260901034533 31 104 0.0 1.6 0.00 0.00 0.00 45 992.0
20260901033047 32 104 0.0 3.2 0.00 0.00 0.00 44 991.9
20260901031531 32 104 0.0 0.0 0.00 0.00 0.00 42 992.0
20260901030033 32 104 0.0 3.2 0.00 0.00 0.00 41 991.8
20260901024527 32 111 1.6 6.4 0.00 0.00 0.00 39 991.7
20260901023025 33 123 0.0 4.8 0.00 0.00 0.00 39 991.5
20260901021524 33 120 0.0 3.2 0.00 0.00 0.00 38 991.3
20260901020029 33 120 0.0 1.6 0.00 0.00 0.00 37 991.1
20260901014522 34 120 0.0 4.8 0.00 0.00 0.00 35 991.0
20260901013022 34 117 0.0 4.8 0.00 0.00 0.00 35 990.9
20260901011521 35 113 0.0 4.8 0.00 0.00 0.00 34 990.7
20260901010021 35 108 1.6 6.4 0.00 0.00 0.00 34 990.8
20260901004522 35 131 1.6 8.0 0.00 0.00 0.00 34 990.7
20260901003034 36 92 1.6 8.0 0.00 0.00 0.00 33 990.7
20260901001520 36 122 3.2 9.7 0.00 0.00 0.00 32 990.7
20260901000030 36 117 4.8 12.9 0.00 0.00 0.00 32 990.7
20260831234517 36 129 4.8 14.5 0.00 0.00 0.00 32 990.7
20260831233016 37 105 1.6 11.3 0.00 0.00 0.00 32 990.7
20260831231516 37 103 4.8 12.9 0.00 0.00 0.00 32 990.7
20260831230016 37 174 3.2 12.9 0.00 0.00 0.00 32 990.8
20260831224510 37 42 4.8 12.9 0.00 0.00 0.00 31 990.8
20260831223009 37 110 3.2 12.9 0.00 0.00 0.00 33 991.0
20260831221506 37 84 1.6 9.7 0.00 0.00 0.00 33 991.0
20260831220005 37 127 4.8 12.9 0.00 0.00 0.00 33 991.2
20260831214502 37 133 4.8 16.1 0.00 0.00 0.00 32 991.4
20260831213004 38 119 6.4 17.7 0.00 0.00 0.00 30 991.3
20260831211603 37 113 4.8 20.9 0.00 0.00 0.00 32 991.5
20260831210055 37 91 4.8 16.1 0.00 0.00 0.00 32 991.6
20260831204554 37 131 3.2 14.5 0.00 0.00 0.00 33 991.9
20260831203100 37 98 6.4 16.1 0.00 0.00 0.00 32 992.1
20260831201553 37 165 4.8 12.9 0.00 0.00 0.00 32 992.2
20260831200050 37 114 4.8 12.9 0.00 0.00 0.00 34 992.5
20260831194554 36 359 3.2 11.3 0.00 0.00 0.00 34 992.7
20260831193043 36 93 1.6 11.3 0.00 0.00 0.00 36 992.9
20260831191541 37 135 1.6 14.5 0.00 0.00 0.00 34 993.0
20260831190052 36 127 1.6 19.3 0.00 0.00 0.00 36 993.1
20260831184535 36 201 8.0 16.1 0.00 0.00 0.00 36 993.3
20260831183032 36 226 6.4 20.9 0.00 0.00 0.00 37 993.5
20260831181530 36 89 6.4 14.5 0.00 0.00 0.00 39 993.8
20260831180026 35 325 1.6 12.9 0.00 0.00 0.00 41 994.0
20260831174524 35 75 6.4 14.5 0.00 0.00 0.00 42 994.4
20260831173022 35 226 3.2 12.9 0.00 0.00 0.00 43 994.6
20260831171520 35 103 6.4 12.9 0.00 0.00 0.00 42 994.6
20260831170017 34 240 4.8 11.3 0.00 0.00 0.00 44 994.8
20260831164522 33 199 3.2 11.3 0.00 0.00 0.00 44 994.8
20260831163010 33 277 3.2 11.3 0.00 0.00 0.00 45 994.8
20260831161510 32 242 4.8 14.5 0.00 0.00 0.00 46 995.0
20260831160005 32 212 1.6 12.9 0.00 0.00 0.00 48 995.0
20260831154503 32 168 1.6 12.9 0.00 0.00 0.00 50 994.9
20260831153059 31 359 3.2 11.3 0.00 0.00 0.00 51 994.9
20260831151556 31 219 3.2 9.7 0.00 0.00 0.00 53 994.9
20260831150103 31 229 1.6 12.9 0.00 0.00 0.00 56 994.7
20260831144558 30 302 1.6 11.3 0.00 0.00 0.00 58 994.5
20260831143049 30 176 4.8 11.3 0.00 0.00 0.00 60 994.6
20260831141548 29 163 3.2 11.3 0.00 0.00 0.00 62 994.7